Terug naar catalogus

HULIANWANG DIGUI-25

ActiefCommunicatiePO
NORAD 63692·PAYLOAD·🇨🇳 China

Gelanceerd Apr 28, 2025 vanaf Wenchang Space Launch Site

Loading…

Volgende Passages (komende 24 uur)

TLE

VersSource: Space-Track

Epoch: Sep 14, 2026, 14:16 UTC

1 63692U 25086F   26257.59474254  .00000016  00000-0  22463-5 0  9998
2 63692  86.4971 282.8948 0002003  83.0903 277.0459 13.24413598 66693

Volg HULIANWANG DIGUI-25 in realtime met AllMySat

Download on the App Store